Tracking 25723 objects as of 29-Jun-2022
HD Live streaming from Space Station
objects crossing your sky now

DMSP 5D-2 F13 DEB

Track DMSP 5D-2 F13 DEB now!
10-day predictions


NORAD ID: 42331
Int'l Code: 1995-015JZ
Perigee: 798.9 km
Apogee: 814.3 km
Inclination: 98.7 °
Period: 100.9 minutes
Semi major axis: 7177 km
RCS: Unknown
Launch date: March 24, 1995
Source: United States (US)
Launch site: AIR FORCE WESTERN TEST RANGE (AFWTR)

Note: This is SATELLITE DEBRIS
aabbcc
Your satellite tracking list
Your tracking list is empty




NASA's NSSDC Master Catalog

Two Line Element Set (TLE):
1 42331U 95015JZ  22179.51013674  .00002829  00000-0  11642-2 0  9998
2 42331  98.7173 203.1045 0010706 123.2929 236.9279 14.27684954343825
Source of the keplerian elements: AFSPC